| time (UTC) | temp C | wind direction | speed KPH | gust KPH | rain 1hr cm | rain 24hr cm | rain mn cm | humidity % | barometer mb |
| 20260831140052 | 26 | 273 | 0.0 | 6.4 | 0.00 | 0.00 | 0.00 | 67 | 1015.0 |
| 20260831134555 | 25 | 273 | 0.0 | 4.8 | 0.00 | 0.00 | 0.00 | 62 | 1015.0 |
| 20260831133049 | 25 | 271 | 0.0 | 4.8 | 0.00 | 0.00 | 0.00 | 59 | 1014.9 |
| 20260831131548 | 25 | 232 | 0.0 | 1.6 | 0.00 | 0.00 | 0.00 | 55 | 1014.8 |
| 20260831130046 | 24 | 232 | 0.0 | 3.2 | 0.00 | 0.00 | 0.00 | 50 | 1014.7 |
| 20260831124555 | -17 | 0.0 | 0.0 | 0.00 | 0.00 | 0.00 | 1014.5 | ||
| 20260831123037 | -17 | 0.0 | 0.0 | 0.00 | 0.00 | 0.00 | 1014.3 | ||
| 20260831121533 | -17 | 0.0 | 0.0 | 0.00 | 0.00 | 0.00 | 1014.3 | ||
| 20260831120031 | -17 | 0.0 | 0.0 | 0.00 | 0.00 | 0.00 | 1014.4 | ||
| 20260831114536 | -17 | 0.0 | 0.0 | 0.00 | 0.00 | 0.00 | 1014.3 | ||
| 20260831113020 | -17 | 0.0 | 0.0 | 0.00 | 0.00 | 0.00 | 1014.2 | ||
| 20260831111518 | -17 | 0.0 | 0.0 | 0.00 | 0.00 | 0.00 | 1014.0 | ||
| 20260831110014 | -17 | 0.0 | 0.0 | 0.00 | 0.00 | 0.00 | 1014.0 | ||
| 20260831104516 | -17 | 0.0 | 0.0 | 0.00 | 0.00 | 0.00 | 1014.0 | ||
| 20260831103005 | -17 | 0.0 | 0.0 | 0.00 | 0.00 | 0.00 | 1013.8 | ||
| 20260831101601 | -17 | 0.0 | 0.0 | 0.00 | 0.00 | 0.00 | 1014.1 | ||
| 20260831100055 | -17 | 0.0 | 0.0 | 0.00 | 0.00 | 0.00 | 1013.9 | ||
| 20260831094605 | -17 | 0.0 | 0.0 | 0.00 | 0.00 | 0.00 | 1013.8 | ||
| 20260831093047 | -17 | 0.0 | 0.0 | 0.00 | 0.00 | 0.00 | 1013.8 | ||
| 20260831091542 | -17 | 0.0 | 0.0 | 0.00 | 0.00 | 0.00 | 1013.9 | ||
| 20260831090040 | 24 | 111 | 3.2 | 11.3 | 0.00 | 0.00 | 0.00 | 54 | 1013.9 |
| 20260831084537 | 25 | 62 | 4.8 | 9.7 | 0.00 | 0.00 | 0.00 | 59 | 1013.9 |
| 20260831083043 | 25 | 100 | 4.8 | 12.9 | 0.00 | 0.00 | 0.00 | 61 | 1014.0 |
| 20260831081535 | 25 | 68 | 4.8 | 11.3 | 0.00 | 0.00 | 0.00 | 63 | 1014.0 |
| 20260831080031 | 25 | 56 | 6.4 | 16.1 | 0.00 | 0.00 | 0.00 | 65 | 1014.0 |
| 20260831074536 | 25 | 121 | 4.8 | 11.3 | 0.00 | 0.00 | 0.00 | 66 | 1014.1 |
| 20260831073031 | 25 | 87 | 4.8 | 14.5 | 0.00 | 0.00 | 0.00 | 67 | 1014.2 |
| 20260831071529 | 26 | 63 | 8.0 | 17.7 | 0.00 | 0.00 | 0.00 | 68 | 1014.2 |
| 20260831070029 | 26 | 114 | 9.7 | 14.5 | 0.00 | 0.00 | 0.00 | 69 | 1014.2 |
| 20260831064519 | 26 | 60 | 9.7 | 12.9 | 0.00 | 0.00 | 0.00 | 69 | 1014.2 |
| 20260831063018 | 26 | 68 | 9.7 | 16.1 | 0.00 | 0.00 | 0.00 | 70 | 1014.2 |
| 20260831061514 | 26 | 91 | 8.0 | 17.7 | 0.00 | 0.00 | 0.00 | 70 | 1014.2 |
| 20260831060011 | 27 | 61 | 11.3 | 16.1 | 0.00 | 0.00 | 0.00 | 70 | 1014.2 |
| 20260831054509 | 27 | 57 | 9.7 | 19.3 | 0.00 | 0.00 | 0.00 | 69 | 1014.0 |
| 20260831053009 | 27 | 86 | 11.3 | 17.7 | 0.00 | 0.00 | 0.00 | 68 | 1014.0 |
| 20260831051508 | 27 | 96 | 6.4 | 16.1 | 0.00 | 0.00 | 0.00 | 68 | 1013.9 |
| 20260831050008 | 28 | 49 | 9.7 | 17.7 | 0.00 | 0.00 | 0.00 | 68 | 1013.9 |
| 20260831044507 | 28 | 67 | 9.7 | 16.1 | 0.00 | 0.00 | 0.00 | 67 | 1013.8 |
| 20260831043007 | 28 | 44 | 9.7 | 22.5 | 0.00 | 0.00 | 0.00 | 66 | 1013.7 |
| 20260831041509 | 28 | 85 | 12.9 | 22.5 | 0.00 | 0.00 | 0.00 | 66 | 1013.7 |
| 20260831040007 | 28 | 113 | 9.7 | 19.3 | 0.00 | 0.00 | 0.00 | 65 | 1013.5 |
| 20260831034504 | 28 | 90 | 12.9 | 25.7 | 0.00 | 0.00 | 0.00 | 64 | 1013.4 |
| 20260831033010 | 29 | 91 | 16.1 | 25.7 | 0.00 | 0.00 | 0.00 | 61 | 1013.1 |
| 20260831031504 | 30 | 101 | 16.1 | 32.2 | 0.00 | 0.00 | 0.00 | 55 | 1013.0 |
| 20260831030002 | 31 | 96 | 4.8 | 11.3 | 0.00 | 0.00 | 0.00 | 46 | 1012.5 |
| 20260831024501 | 31 | 134 | 4.8 | 11.3 | 0.00 | 0.00 | 0.00 | 46 | 1012.3 |
| 20260831023100 | 31 | 87 | 6.4 | 11.3 | 0.00 | 0.00 | 0.00 | 46 | 1012.0 |
| 20260831021600 | 31 | 98 | 6.4 | 14.5 | 0.00 | 0.00 | 0.00 | 46 | 1011.9 |
| 20260831020117 | 31 | 111 | 6.4 | 12.9 | 0.00 | 0.00 | 0.00 | 47 | 1011.8 |
| 20260831014609 | 31 | 103 | 6.4 | 9.7 | 0.00 | 0.00 | 0.00 | 48 | 1011.8 |
| 20260831013058 | 31 | 126 | 4.8 | 9.7 | 0.00 | 0.00 | 0.00 | 48 | 1011.8 |
| 20260831011607 | 31 | 91 | 6.4 | 16.1 | 0.00 | 0.00 | 0.00 | 48 | 1011.8 |
| 20260831010057 | 31 | 91 | 12.9 | 17.7 | 0.00 | 0.00 | 0.00 | 50 | 1011.8 |
| 20260831004556 | 32 | 93 | 6.4 | 14.5 | 0.00 | 0.00 | 0.00 | 50 | 1011.6 |
| 20260831003055 | 32 | 96 | 11.3 | 16.1 | 0.00 | 0.00 | 0.00 | 50 | 1011.7 |
| 20260831001557 | 32 | 96 | 4.8 | 14.5 | 0.00 | 0.00 | 0.00 | 48 | 1011.7 |
| 20260831000054 | 32 | 84 | 6.4 | 16.1 | 0.00 | 0.00 | 0.00 | 48 | 1011.8 |
| 20260830234609 | 32 | 63 | 8.0 | 16.1 | 0.00 | 0.00 | 0.00 | 48 | 1012.0 |
| 20260830233051 | 32 | 93 | 11.3 | 17.7 | 0.00 | 0.00 | 0.00 | 50 | 1012.0 |
| 20260830231554 | 32 | 65 | 6.4 | 14.5 | 0.00 | 0.00 | 0.00 | 50 | 1012.0 |
| 20260830230055 | 33 | 82 | 6.4 | 11.3 | 0.00 | 0.00 | 0.00 | 48 | 1011.9 |
| 20260830224549 | 32 | 152 | 9.7 | 16.1 | 0.00 | 0.00 | 0.00 | 49 | 1011.9 |
| 20260830223043 | 32 | 96 | 11.3 | 20.9 | 0.00 | 0.00 | 0.00 | 49 | 1012.0 |
| 20260830221539 | 32 | 95 | 8.0 | 12.9 | 0.00 | 0.00 | 0.00 | 48 | 1012.1 |
| 20260830220041 | 32 | 59 | 8.0 | 17.7 | 0.00 | 0.00 | 0.00 | 48 | 1012.4 |
| 20260830214539 | 32 | 55 | 12.9 | 20.9 | 0.00 | 0.00 | 0.00 | 48 | 1012.4 |
| 20260830213036 | 32 | 62 | 6.4 | 20.9 | 0.00 | 0.00 | 0.00 | 50 | 1012.4 |
| 20260830211533 | 32 | 85 | 6.4 | 16.1 | 0.00 | 0.00 | 0.00 | 50 | 1012.6 |
| 20260830210032 | 32 | 97 | 9.7 | 14.5 | 0.00 | 0.00 | 0.00 | 47 | 1012.8 |
| 20260830204528 | 32 | 101 | 11.3 | 16.1 | 0.00 | 0.00 | 0.00 | 47 | 1013.1 |
| 20260830203025 | 32 | 98 | 4.8 | 12.9 | 0.00 | 0.00 | 0.00 | 48 | 1013.2 |
| 20260830201554 | 32 | 32 | 9.7 | 22.5 | 0.00 | 0.00 | 0.00 | 48 | 1013.3 |
| 20260830200018 | 32 | 51 | 8.0 | 14.5 | 0.00 | 0.00 | 0.00 | 50 | 1013.7 |
| 20260830194518 | 31 | 203 | 4.8 | 16.1 | 0.00 | 0.00 | 0.00 | 52 | 1013.9 |
| 20260830193011 | 31 | 99 | 11.3 | 17.7 | 0.00 | 0.00 | 0.00 | 52 | 1014.0 |
| 20260830191507 | 31 | 99 | 11.3 | 16.1 | 0.00 | 0.00 | 0.00 | 55 | 1014.4 |
| 20260830190007 | 31 | 85 | 12.9 | 20.9 | 0.00 | 0.00 | 0.00 | 57 | 1014.6 |
| 20260830184501 | 31 | 105 | 3.2 | 12.9 | 0.00 | 0.00 | 0.00 | 59 | 1014.8 |
| 20260830183100 | 30 | 94 | 4.8 | 17.7 | 0.00 | 0.00 | 0.00 | 59 | 1015.0 |
| 20260830181609 | 30 | 68 | 8.0 | 16.1 | 0.00 | 0.00 | 0.00 | 61 | 1015.3 |
| 20260830180109 | 30 | 75 | 8.0 | 14.5 | 0.00 | 0.00 | 0.00 | 61 | 1015.5 |
| 20260830174606 | 30 | 158 | 1.6 | 14.5 | 0.00 | 0.00 | 0.00 | 62 | 1015.6 |
| 20260830173109 | 31 | 51 | 4.8 | 11.3 | 0.00 | 0.00 | 0.00 | 60 | 1015.7 |
| 20260830171602 | 30 | 52 | 6.4 | 11.3 | 0.00 | 0.00 | 0.00 | 61 | 1015.8 |
| 20260830170055 | 30 | 68 | 0.0 | 12.9 | 0.00 | 0.00 | 0.00 | 64 | 1016.0 |
| 20260830164553 | 30 | 51 | 0.0 | 6.4 | 0.00 | 0.00 | 0.00 | 66 | 1016.1 |
| 20260830163054 | 28 | 86 | 1.6 | 6.4 | 0.00 | 0.00 | 0.00 | 67 | 1016.2 |
| 20260830161546 | 28 | 39 | 1.6 | 6.4 | 0.00 | 0.00 | 0.00 | 68 | 1016.1 |
| 20260830160045 | 28 | 66 | 3.2 | 6.4 | 0.00 | 0.00 | 0.00 | 69 | 1016.1 |
| 20260830154543 | 28 | 67 | 1.6 | 9.7 | 0.00 | 0.00 | 0.00 | 69 | 1016.2 |
| 20260830153046 | 28 | 82 | 0.0 | 4.8 | 0.00 | 0.00 | 0.00 | 69 | 1016.2 |
| 20260830151541 | 28 | 260 | 0.0 | 4.8 | 0.00 | 0.00 | 0.00 | 69 | 1016.2 |
| 20260830150040 | 28 | 235 | 0.0 | 8.0 | 0.00 | 0.00 | 0.00 | 69 | 1016.2 |
| 20260830144542 | 26 | 44 | 1.6 | 6.4 | 0.00 | 0.00 | 0.00 | 69 | 1016.1 |
| 20260830143034 | 25 | 293 | 1.6 | 6.4 | 0.00 | 0.00 | 0.00 | 66 | 1016.0 |
| 20260830141534 | 25 | 249 | 0.0 | 8.0 | 0.00 | 0.00 | 0.00 | 64 | 1016.1 |